Tracking 17938 objects as of 24-February-2017
HD Live streaming from Space Station
objects crossing your sky now

SCOUT X-4 R/B

Track SCOUT X-4 R/B now!
10-day predictions


NORAD ID: 1739
Int'l Code: 1965-093B
Perigee: 670.2 km
Apogee: 787.1 km
Inclination: 59.7 °
Period: 99.2 minutes
Semi major axis: 7099 km
RCS: 0.5409 m2 (medium)
Launch date: November 19, 1965
Source: United States (US)
Launch site: WALLOPS ISLAND (WLPIS)

Note: This is a ROCKET BODY
Your satellite tracking list
Your tracking list is empty





NASA's NSSDC Master Catalog

Two Line Element Set (TLE):
1 01739U 65093B   17054.22525388 -.00000042  00000-0  28652-4 0  9999
2 01739  59.7047 101.8259 0082336 335.9267  23.7935 14.51258449697089
Source of the keplerian elements: AFSPC